Time,TemperatureF,DewpointF,PressureIn,WindDirection,WindDirectionDegrees,WindSpeedMPH,WindSpeedGustMPH,Humidity,HourlyPrecipIn,Conditions,Clouds,dailyrainin,SoftwareType,DateUTC
2013-11-25 00:04:00,17.5,-0.2,30.19,NW,315,0.0,15.0,45,0.00,,CLR,0.00,VWS V14.00,2013-11-25 05:04:00,
2013-11-25 00:09:00,17.3,-0.4,30.19,North,351,0.0,8.0,45,0.00,,CLR,0.00,VWS V14.00,2013-11-25 05:09:00,
2013-11-25 00:14:00,17.3,0.1,30.19,NNW,345,0.0,8.0,46,0.00,,CLR,0.00,VWS V14.00,2013-11-25 05:14:00,
2013-11-25 00:19:00,17.2,-0.5,30.20,NW,316,0.0,8.0,45,0.00,,CLR,0.00,VWS V14.00,2013-11-25 05:19:00,
2013-11-25 00:24:00,17.2,-0.5,30.19,WNW,287,5.0,10.0,45,0.00,,CLR,0.00,VWS V14.00,2013-11-25 05:24:00,
2013-11-25 00:29:00,17.2,-0.5,30.20,NW,323,1.0,12.0,45,0.00,,CLR,0.00,VWS V14.00,2013-11-25 05:29:00,
2013-11-25 00:34:00,17.2,-0.5,30.20,NW,319,0.0,18.0,45,0.00,,CLR,0.00,VWS V14.00,2013-11-25 05:34:00,
2013-11-25 00:39:00,17.2,-0.5,30.20,NNW,347,0.0,18.0,45,0.00,,CLR,0.00,VWS V14.00,2013-11-25 05:39:00,
2013-11-25 00:44:00,17.0,-0.2,30.21,WNW,302,0.0,18.0,46,0.00,,CLR,0.00,VWS V14.00,2013-11-25 05:44:00,
2013-11-25 00:49:00,17.0,-0.7,30.21,NW,313,0.0,18.0,45,0.00,,CLR,0.00,VWS V14.00,2013-11-25 05:49:00,
2013-11-25 00:54:00,16.8,-0.4,30.21,NW,315,0.0,18.0,46,0.00,,CLR,0.00,VWS V14.00,2013-11-25 05:54:00,
2013-11-25 00:59:00,16.8,-0.9,30.21,NW,311,0.0,18.0,45,0.00,,CLR,0.00,VWS V14.00,2013-11-25 05:59:00,
2013-11-25 01:04:00,16.7,-0.5,30.21,NW,309,0.0,2.0,46,0.00,,CLR,0.00,VWS V14.00,2013-11-25 06:04:00,
2013-11-25 01:09:00,16.7,-0.5,30.21,NNW,345,0.0,8.0,46,0.00,,CLR,0.00,VWS V14.00,2013-11-25 06:09:00,
2013-11-25 01:14:00,16.7,-0.9,30.21,NNW,335,3.0,9.0,45,0.00,,CLR,0.00,VWS V14.00,2013-11-25 06:14:00,
2013-11-25 01:19:00,16.7,-0.5,30.21,NW,309,0.0,9.0,46,0.00,,CLR,0.00,VWS V14.00,2013-11-25 06:19:00,
2013-11-25 01:24:00,16.7,-0.9,30.22,NW,321,0.0,10.0,45,0.00,,CLR,0.00,VWS V14.00,2013-11-25 06:24:00,
2013-11-25 01:29:00,16.5,-1.1,30.22,NW,309,0.0,10.0,45,0.00,,CLR,0.00,VWS V14.00,2013-11-25 06:29:00,
2013-11-25 01:34:00,16.4,-1.2,30.22,NNW,328,12.0,16.0,45,0.00,,CLR,0.00,VWS V14.00,2013-11-25 06:34:00,
2013-11-25 01:39:00,16.5,-1.1,30.22,WNW,299,0.0,16.0,45,0.00,,CLR,0.00,VWS V14.00,2013-11-25 06:39:00,
2013-11-25 01:44:00,16.4,-0.8,30.22,North,354,5.0,16.0,46,0.00,,CLR,0.00,VWS V14.00,2013-11-25 06:44:00,
2013-11-25 01:49:00,16.4,-0.8,30.22,NW,325,0.0,16.0,46,0.00,,CLR,0.00,VWS V14.00,2013-11-25 06:49:00,
2013-11-25 01:54:00,16.4,-0.8,30.23,NNW,345,0.0,16.0,46,0.00,,CLR,0.00,VWS V14.00,2013-11-25 06:54:00,
2013-11-25 01:59:00,16.2,-0.9,30.24,WNW,284,0.0,16.0,46,0.00,,CLR,0.00,VWS V14.00,2013-11-25 06:59:00,
2013-11-25 02:04:00,16.2,-0.5,30.24,WSW,243,0.0,0.0,47,0.00,,CLR,0.00,VWS V14.00,2013-11-25 07:04:00,
2013-11-25 02:09:00,16.0,-0.7,30.23,NW,323,0.0,0.0,47,0.00,,CLR,0.00,VWS V14.00,2013-11-25 07:09:00,
2013-11-25 02:14:00,16.0,-0.7,30.22,NNW,341,0.0,0.0,47,0.00,,CLR,0.00,VWS V14.00,2013-11-25 07:14:00,
2013-11-25 02:19:00,16.0,-0.2,30.23,WSW,237,0.0,0.0,48,0.00,,CLR,0.00,VWS V14.00,2013-11-25 07:19:00,
2013-11-25 02:24:00,15.9,-0.3,30.23,West,279,0.0,0.0,48,0.00,,CLR,0.00,VWS V14.00,2013-11-25 07:24:00,
2013-11-25 02:29:00,15.7,-0.1,30.23,NW,309,0.0,0.0,49,0.00,,CLR,0.00,VWS V14.00,2013-11-25 07:29:00,
2013-11-25 02:34:00,15.7,-0.1,30.23,WNW,289,0.0,9.0,49,0.00,,CLR,0.00,VWS V14.00,2013-11-25 07:34:00,
2013-11-25 02:39:00,15.7,0.4,30.23,NW,326,0.0,9.0,50,0.00,,CLR,0.00,VWS V14.00,2013-11-25 07:39:00,
2013-11-25 02:44:00,15.5,0.2,30.23,WNW,294,4.0,9.0,50,0.00,,CLR,0.00,VWS V14.00,2013-11-25 07:44:00,
2013-11-25 02:49:00,15.7,0.8,30.24,NW,321,0.0,9.0,51,0.00,,CLR,0.00,VWS V14.00,2013-11-25 07:49:00,
2013-11-25 02:54:00,15.6,0.7,30.24,NW,312,0.0,9.0,51,0.00,,CLR,0.00,VWS V14.00,2013-11-25 07:54:00,
2013-11-25 02:59:00,15.5,0.6,30.24,NW,315,0.0,9.0,51,0.00,,CLR,0.00,VWS V14.00,2013-11-25 07:59:00,
2013-11-25 03:04:00,15.4,0.5,30.25,WNW,284,0.0,0.0,51,0.00,,CLR,0.00,VWS V14.00,2013-11-25 08:04:00,
2013-11-25 03:09:00,15.4,0.5,30.25,North,350,0.0,0.0,51,0.00,,CLR,0.00,VWS V14.00,2013-11-25 08:09:00,
2013-11-25 03:14:00,15.2,0.8,30.25,NW,308,0.0,0.0,52,0.00,,CLR,0.00,VWS V14.00,2013-11-25 08:14:00,
2013-11-25 03:19:00,15.1,0.6,30.26,WNW,286,0.0,4.0,52,0.00,,CLR,0.00,VWS V14.00,2013-11-25 08:19:00,
2013-11-25 03:24:00,15.1,1.1,30.26,North,350,0.0,5.0,53,0.00,,CLR,0.00,VWS V14.00,2013-11-25 08:24:00,
2013-11-25 03:29:00,15.2,0.8,30.26,West,281,0.0,5.0,52,0.00,,CLR,0.00,VWS V14.00,2013-11-25 08:29:00,
2013-11-25 03:34:00,15.2,0.8,30.26,North,3,0.0,7.0,52,0.00,,CLR,0.00,VWS V14.00,2013-11-25 08:34:00,
2013-11-25 03:39:00,15.2,1.1,30.26,WNW,283,0.0,7.0,53,0.00,,CLR,0.00,VWS V14.00,2013-11-25 08:39:00,
2013-11-25 03:44:00,15.2,0.8,30.26,NW,308,0.0,7.0,52,0.00,,CLR,0.00,VWS V14.00,2013-11-25 08:44:00,
2013-11-25 03:49:00,15.2,0.8,30.26,West,262,0.0,7.0,52,0.00,,CLR,0.00,VWS V14.00,2013-11-25 08:49:00,
2013-11-25 03:54:00,15.2,0.8,30.26,NW,315,0.0,15.0,52,0.00,,CLR,0.00,VWS V14.00,2013-11-25 08:54:00,
2013-11-25 03:59:00,15.4,0.5,30.27,NNW,338,2.0,18.0,51,0.00,,CLR,0.00,VWS V14.00,2013-11-25 08:59:00,
2013-11-25 04:04:00,15.6,0.7,30.26,WNW,300,0.0,9.0,51,0.00,,CLR,0.00,VWS V14.00,2013-11-25 09:04:00,
2013-11-25 04:09:00,15.4,0.5,30.26,WNW,291,0.0,9.0,51,0.00,,CLR,0.00,VWS V14.00,2013-11-25 09:09:00,
2013-11-25 04:14:00,15.4,0.5,30.26,NW,319,5.0,11.0,51,0.00,,CLR,0.00,VWS V14.00,2013-11-25 09:14:00,
2013-11-25 04:19:00,15.4,0.5,30.26,WNW,298,0.0,12.0,51,0.00,,CLR,0.00,VWS V14.00,2013-11-25 09:19:00,
2013-11-25 04:24:00,15.4,0.5,30.27,West,274,0.0,12.0,51,0.00,,CLR,0.00,VWS V14.00,2013-11-25 09:24:00,
2013-11-25 04:29:00,15.2,0.3,30.27,North,5,0.0,12.0,51,0.00,,CLR,0.00,VWS V14.00,2013-11-25 09:29:00,
2013-11-25 04:34:00,15.1,0.2,30.28,NW,314,0.0,6.0,51,0.00,,CLR,0.00,VWS V14.00,2013-11-25 09:34:00,
2013-11-25 04:39:00,15.2,0.3,30.28,NW,305,0.0,13.0,51,0.00,,CLR,0.00,VWS V14.00,2013-11-25 09:39:00,
2013-11-25 04:44:00,15.2,0.3,30.28,North,352,0.0,13.0,51,0.00,,CLR,0.00,VWS V14.00,2013-11-25 09:44:00,
2013-11-25 04:49:00,15.2,0.3,30.28,NW,322,2.0,13.0,51,0.00,,CLR,0.00,VWS V14.00,2013-11-25 09:49:00,
2013-11-25 04:54:00,15.2,0.3,30.28,NNE,26,6.0,14.0,51,0.00,,CLR,0.00,VWS V14.00,2013-11-25 09:54:00,
2013-11-25 04:59:00,15.2,0.3,30.29,NNW,340,0.0,14.0,51,0.00,,CLR,0.00,VWS V14.00,2013-11-25 09:59:00,
2013-11-25 05:04:00,15.1,0.2,30.28,NNE,31,0.0,2.0,51,0.00,,CLR,0.00,VWS V14.00,2013-11-25 10:04:00,
2013-11-25 05:09:00,14.9,0.1,30.29,NE,47,0.0,2.0,51,0.00,,CLR,0.00,VWS V14.00,2013-11-25 10:09:00,
2013-11-25 05:14:00,14.9,0.1,30.29,NW,316,0.0,8.0,51,0.00,,CLR,0.00,VWS V14.00,2013-11-25 10:14:00,
2013-11-25 05:19:00,14.7,-0.1,30.29,NW,322,0.0,8.0,51,0.00,,CLR,0.00,VWS V14.00,2013-11-25 10:19:00,
2013-11-25 05:24:00,14.7,-0.1,30.29,NNW,341,0.0,8.0,51,0.00,,CLR,0.00,VWS V14.00,2013-11-25 10:24:00,
2013-11-25 05:29:00,14.7,-0.1,30.29,NNW,338,0.0,8.0,51,0.00,,CLR,0.00,VWS V14.00,2013-11-25 10:29:00,
2013-11-25 05:34:00,14.6,0.2,30.30,NW,311,0.0,0.0,52,0.00,,CLR,0.00,VWS V14.00,2013-11-25 10:34:00,
2013-11-25 05:39:00,14.4,-0.4,30.30,North,350,0.0,10.0,51,0.00,,CLR,0.00,VWS V14.00,2013-11-25 10:39:00,
2013-11-25 05:44:00,14.4,0.0,30.29,North,358,0.0,10.0,52,0.00,,CLR,0.00,VWS V14.00,2013-11-25 10:44:00,
2013-11-25 05:49:00,14.3,-0.1,30.29,NNW,335,0.0,10.0,52,0.00,,CLR,0.00,VWS V14.00,2013-11-25 10:49:00,
2013-11-25 05:54:00,14.1,-0.3,30.29,NW,324,0.0,10.0,52,0.00,,CLR,0.00,VWS V14.00,2013-11-25 10:54:00,
2013-11-25 05:59:00,14.1,-0.3,30.30,NW,319,4.0,10.0,52,0.00,,CLR,0.00,VWS V14.00,2013-11-25 10:59:00,
2013-11-25 06:04:00,14.1,-0.3,30.30,NW,324,0.0,5.0,52,0.00,,CLR,0.00,VWS V14.00,2013-11-25 11:04:00,
2013-11-25 06:09:00,14.2,-0.2,30.30,NW,311,0.0,10.0,52,0.00,,CLR,0.00,VWS V14.00,2013-11-25 11:09:00,
2013-11-25 06:14:00,14.2,-0.2,30.31,NNW,339,0.0,10.0,52,0.00,,CLR,0.00,VWS V14.00,2013-11-25 11:14:00,
2013-11-25 06:19:00,14.2,-0.2,30.31,NNW,340,0.0,10.0,52,0.00,,CLR,0.00,VWS V14.00,2013-11-25 11:19:00,
2013-11-25 06:24:00,14.2,0.2,30.31,NW,318,1.0,10.0,53,0.00,,CLR,0.00,VWS V14.00,2013-11-25 11:24:00,
2013-11-25 06:29:00,14.2,0.6,30.31,NW,313,0.0,10.0,54,0.00,,CLR,0.00,VWS V14.00,2013-11-25 11:29:00,
2013-11-25 06:34:00,14.3,0.7,30.31,NW,318,4.0,10.0,54,0.00,,CLR,0.00,VWS V14.00,2013-11-25 11:34:00,
2013-11-25 06:39:00,14.4,0.4,30.32,NW,325,0.0,10.0,53,0.00,,CLR,0.00,VWS V14.00,2013-11-25 11:39:00,
2013-11-25 06:44:00,14.4,0.4,30.32,WNW,292,0.0,10.0,53,0.00,,CLR,0.00,VWS V14.00,2013-11-25 11:44:00,
2013-11-25 06:49:00,14.2,0.2,30.32,NNW,348,0.0,11.0,53,0.00,,CLR,0.00,VWS V14.00,2013-11-25 11:49:00,
2013-11-25 06:54:00,14.2,0.2,30.32,NW,308,0.0,11.0,53,0.00,,CLR,0.00,VWS V14.00,2013-11-25 11:54:00,
2013-11-25 06:59:00,14.2,0.2,30.33,North,356,0.0,11.0,53,0.00,,CLR,0.00,VWS V14.00,2013-11-25 11:59:00,
2013-11-25 07:04:00,14.1,0.1,30.33,North,354,0.0,0.0,53,0.00,,BKN230,0.00,VWS V14.00,2013-11-25 12:04:00,
2013-11-25 07:09:00,14.1,0.5,30.33,NNW,340,0.0,0.0,54,0.00,,BKN230,0.00,VWS V14.00,2013-11-25 12:09:00,
2013-11-25 07:14:00,14.1,0.5,30.32,West,273,0.0,0.0,54,0.00,,BKN230,0.00,VWS V14.00,2013-11-25 12:14:00,
2013-11-25 07:20:00,14.2,0.2,30.33,NW,324,0.0,9.0,53,0.00,,BKN230,0.00,VWS V14.00,2013-11-25 12:20:00,
2013-11-25 07:25:00,14.4,0.4,30.32,NNW,348,0.0,9.0,53,0.00,,BKN230,0.00,VWS V14.00,2013-11-25 12:25:00,
2013-11-25 07:30:00,14.4,0.0,30.33,NW,317,0.0,9.0,52,0.00,,BKN230,0.00,VWS V14.00,2013-11-25 12:30:00,
2013-11-25 07:35:00,14.4,0.4,30.33,WNW,287,0.0,6.0,53,0.00,,BKN230,0.00,VWS V14.00,2013-11-25 12:35:00,
2013-11-25 07:40:00,14.6,0.6,30.33,West,261,0.0,6.0,53,0.00,,BKN230,0.00,VWS V14.00,2013-11-25 12:40:00,
2013-11-25 07:45:00,14.7,0.3,30.33,NW,321,0.0,6.0,52,0.00,,BKN230,0.00,VWS V14.00,2013-11-25 12:45:00,
2013-11-25 07:50:00,14.9,0.1,30.33,North,352,0.0,10.0,51,0.00,,BKN230,0.00,VWS V14.00,2013-11-25 12:50:00,
2013-11-25 07:55:00,15.2,0.3,30.33,NNE,22,0.0,10.0,51,0.00,,BKN230,0.00,VWS V14.00,2013-11-25 12:55:00,
2013-11-25 08:00:00,15.4,0.1,30.33,North,355,0.0,10.0,50,0.00,,BKN230,0.00,VWS V14.00,2013-11-25 13:00:00,
2013-11-25 08:05:00,15.5,0.6,30.34,NE,38,0.0,0.0,51,0.00,,CLR,0.00,VWS V14.00,2013-11-25 13:05:00,
2013-11-25 08:10:00,15.7,0.4,30.34,North,353,0.0,9.0,50,0.00,,CLR,0.00,VWS V14.00,2013-11-25 13:10:00,
2013-11-25 08:15:00,15.9,0.6,30.34,NW,309,0.0,9.0,50,0.00,,CLR,0.00,VWS V14.00,2013-11-25 13:15:00,
2013-11-25 08:20:00,16.2,0.4,30.34,North,349,0.0,9.0,49,0.00,,CLR,0.00,VWS V14.00,2013-11-25 13:20:00,
2013-11-25 08:24:00,16.4,0.2,30.34,NW,320,0.0,9.0,48,0.00,,CLR,0.00,VWS V14.00,2013-11-25 13:24:00,
2013-11-25 08:29:00,16.7,0.0,30.34,NW,325,3.0,13.0,47,0.00,,CLR,0.00,VWS V14.00,2013-11-25 13:29:00,
2013-11-25 08:34:00,16.8,0.1,30.34,NW,315,0.0,11.0,47,0.00,,CLR,0.00,VWS V14.00,2013-11-25 13:34:00,
2013-11-25 08:39:00,17.2,-0.5,30.34,NNW,331,4.0,11.0,45,0.00,,CLR,0.00,VWS V14.00,2013-11-25 13:39:00,
2013-11-25 08:44:00,17.3,-0.4,30.35,NW,304,8.0,16.0,45,0.00,,CLR,0.00,VWS V14.00,2013-11-25 13:44:00,
2013-11-25 08:49:00,17.6,-0.6,30.35,North,0,0.0,16.0,44,0.00,,CLR,0.00,VWS V14.00,2013-11-25 13:49:00,
2013-11-25 08:54:00,17.8,-0.9,30.35,NW,324,2.0,16.0,43,0.00,,CLR,0.00,VWS V14.00,2013-11-25 13:54:00,
2013-11-25 08:59:00,18.1,-0.1,30.35,WNW,303,8.0,16.0,44,0.00,,CLR,0.00,VWS V14.00,2013-11-25 13:59:00,
2013-11-25 09:04:00,18.3,-1.5,30.36,West,277,13.0,13.0,41,0.00,,CLR,0.00,VWS V14.00,2013-11-25 14:04:00,
2013-11-25 09:09:00,18.4,-1.4,30.35,NNW,340,0.0,13.0,41,0.00,,CLR,0.00,VWS V14.00,2013-11-25 14:09:00,
2013-11-25 09:14:00,18.6,-0.7,30.36,NW,326,2.0,14.0,42,0.00,,CLR,0.00,VWS V14.00,2013-11-25 14:14:00,
2013-11-25 09:19:00,18.7,-1.1,30.35,NNW,331,1.0,14.0,41,0.00,,CLR,0.00,VWS V14.00,2013-11-25 14:19:00,
2013-11-25 09:24:00,18.9,-0.9,30.36,NW,312,0.0,14.0,41,0.00,,CLR,0.00,VWS V14.00,2013-11-25 14:24:00,
2013-11-25 09:29:00,19.2,-0.6,30.35,NW,305,0.0,14.0,41,0.00,,CLR,0.00,VWS V14.00,2013-11-25 14:29:00,
2013-11-25 09:34:00,19.5,-0.4,30.36,WNW,290,0.0,8.0,41,0.00,,CLR,0.00,VWS V14.00,2013-11-25 14:34:00,
2013-11-25 09:39:00,20.0,-0.4,30.36,NW,322,0.0,8.0,40,0.00,,CLR,0.00,VWS V14.00,2013-11-25 14:39:00,
2013-11-25 09:44:00,20.4,-0.6,30.36,WNW,286,0.0,16.0,39,0.00,,CLR,0.00,VWS V14.00,2013-11-25 14:44:00,
2013-11-25 09:49:00,20.2,-0.8,30.36,NW,307,0.0,16.0,39,0.00,,CLR,0.00,VWS V14.00,2013-11-25 14:49:00,
2013-11-25 09:55:00,20.7,0.2,30.36,North,0,0.0,16.0,40,0.00,,CLR,0.00,VWS V14.00,2013-11-25 14:55:00,
2013-11-25 10:00:00,21.3,-0.3,30.36,WNW,288,1.0,16.0,38,0.00,,CLR,0.00,VWS V14.00,2013-11-25 15:00:00,
2013-11-25 10:05:00,21.5,-0.2,30.36,NNW,340,0.0,4.0,38,0.00,,CLR,0.00,VWS V14.00,2013-11-25 15:05:00,
2013-11-25 10:10:00,21.8,-0.5,30.36,NW,326,0.0,11.0,37,0.00,,CLR,0.00,VWS V14.00,2013-11-25 15:10:00,
2013-11-25 10:14:00,21.9,-0.4,30.36,SW,223,0.0,11.0,37,0.00,,CLR,0.00,VWS V14.00,2013-11-25 15:14:00,
2013-11-25 10:19:00,22.2,-0.7,30.36,NNE,18,0.0,11.0,36,0.00,,CLR,0.00,VWS V14.00,2013-11-25 15:19:00,
2013-11-25 10:25:00,22.5,-1.0,30.35,North,357,0.0,11.0,35,0.00,,CLR,0.00,VWS V14.00,2013-11-25 15:25:00,
2013-11-25 10:30:00,22.8,-0.7,30.35,NW,318,2.0,11.0,35,0.00,,CLR,0.00,VWS V14.00,2013-11-25 15:30:00,
2013-11-25 10:35:00,23.3,-0.9,30.35,WNW,302,0.0,9.0,34,0.00,,CLR,0.00,VWS V14.00,2013-11-25 15:35:00,
2013-11-25 10:40:00,23.7,-0.6,30.35,NW,313,0.0,9.0,34,0.00,,CLR,0.00,VWS V14.00,2013-11-25 15:40:00,
2013-11-25 10:44:00,24.3,0.0,30.35,NW,304,0.0,9.0,34,0.00,,CLR,0.00,VWS V14.00,2013-11-25 15:44:00,
2013-11-25 10:49:00,24.3,-1.3,30.34,NNW,343,7.0,15.0,32,0.00,,CLR,0.00,VWS V14.00,2013-11-25 15:49:00,
2013-11-25 10:54:00,24.1,-1.5,30.35,NNW,348,0.0,15.0,32,0.00,,CLR,0.00,VWS V14.00,2013-11-25 15:54:00,
2013-11-25 10:59:00,24.3,-2.7,30.34,NW,308,0.0,15.0,30,0.00,,CLR,0.00,VWS V14.00,2013-11-25 15:59:00,
2013-11-25 11:04:00,24.8,-2.2,30.34,West,275,0.0,8.0,30,0.00,,CLR,0.00,VWS V14.00,2013-11-25 16:04:00,
2013-11-25 11:09:00,25.2,-1.9,30.34,North,350,0.0,9.0,30,0.00,,CLR,0.00,VWS V14.00,2013-11-25 16:09:00,
2013-11-25 11:14:00,25.8,-1.4,30.35,NW,314,0.0,9.0,30,0.00,,CLR,0.00,VWS V14.00,2013-11-25 16:14:00,
2013-11-25 11:19:00,25.9,-2.7,30.34,NNW,347,0.0,10.0,28,0.00,,CLR,0.00,VWS V14.00,2013-11-25 16:19:00,
2013-11-25 11:24:00,26.7,-1.3,30.34,ENE,62,0.0,10.0,29,0.00,,CLR,0.00,VWS V14.00,2013-11-25 16:24:00,
2013-11-25 11:29:00,27.0,-1.0,30.34,ENE,59,0.0,10.0,29,0.00,,CLR,0.00,VWS V14.00,2013-11-25 16:29:00,
2013-11-25 11:34:00,27.4,-2.2,30.34,NW,308,0.0,10.0,27,0.00,,CLR,0.00,VWS V14.00,2013-11-25 16:34:00,
2013-11-25 11:39:00,27.9,-1.7,30.34,NNW,336,1.0,10.0,27,0.00,,CLR,0.00,VWS V14.00,2013-11-25 16:39:00,
2013-11-25 11:44:00,28.0,-1.6,30.34,NE,49,0.0,10.0,27,0.00,,CLR,0.00,VWS V14.00,2013-11-25 16:44:00,
2013-11-25 11:49:00,28.2,-1.5,30.34,NW,309,0.0,10.0,27,0.00,,CLR,0.00,VWS V14.00,2013-11-25 16:49:00,
2013-11-25 11:54:00,28.5,-1.2,30.33,NW,322,0.0,10.0,27,0.00,,CLR,0.00,VWS V14.00,2013-11-25 16:54:00,
2013-11-25 11:59:00,28.5,-1.2,30.33,NNW,339,3.0,10.0,27,0.00,,CLR,0.00,VWS V14.00,2013-11-25 16:59:00,
2013-11-25 12:04:00,28.2,-1.5,30.33,WNW,294,0.0,13.0,27,0.00,,CLR,0.00,VWS V14.00,2013-11-25 17:04:00,
2013-11-25 12:09:00,28.3,-0.6,30.33,NW,322,5.0,15.0,28,0.00,,CLR,0.00,VWS V14.00,2013-11-25 17:09:00,
2013-11-25 12:14:00,28.9,0.6,30.33,NNW,331,0.0,15.0,29,0.00,,CLR,0.00,VWS V14.00,2013-11-25 17:14:00,
2013-11-25 12:19:00,29.3,0.2,30.33,NW,319,0.0,15.0,28,0.00,,CLR,0.00,VWS V14.00,2013-11-25 17:19:00,
2013-11-25 12:24:00,29.5,1.2,30.34,NW,322,3.0,15.0,29,0.00,,CLR,0.00,VWS V14.00,2013-11-25 17:24:00,
2013-11-25 12:29:00,29.5,1.2,30.33,West,261,0.0,15.0,29,0.00,,CLR,0.00,VWS V14.00,2013-11-25 17:29:00,
2013-11-25 12:34:00,29.6,2.0,30.32,NNW,339,0.0,6.0,30,0.00,,CLR,0.00,VWS V14.00,2013-11-25 17:34:00,
2013-11-25 12:39:00,29.6,2.7,30.31,NNW,329,0.0,7.0,31,0.00,,CLR,0.00,VWS V14.00,2013-11-25 17:39:00,
2013-11-25 12:44:00,29.6,2.7,30.31,NNW,329,0.0,7.0,31,0.00,,CLR,0.00,VWS V14.00,2013-11-25 17:44:00,
2013-11-25 12:49:00,29.8,2.9,30.32,NNW,348,0.0,8.0,31,0.00,,CLR,0.00,VWS V14.00,2013-11-25 17:49:00,
2013-11-25 12:54:00,30.1,3.8,30.31,NNW,343,5.0,8.0,32,0.00,,CLR,0.00,VWS V14.00,2013-11-25 17:54:00,
2013-11-25 12:59:00,29.9,3.6,30.32,NW,320,0.0,8.0,32,0.00,,CLR,0.00,VWS V14.00,2013-11-25 17:59:00,
2013-11-25 13:04:00,30.7,5.0,30.31,NW,320,0.0,0.0,33,0.00,,CLR,0.00,VWS V14.00,2013-11-25 18:04:00,
2013-11-25 13:09:00,31.1,5.4,30.32,West,262,0.0,0.0,33,0.00,,CLR,0.00,VWS V14.00,2013-11-25 18:09:00,
2013-11-25 13:14:00,30.8,5.1,30.31,North,359,4.0,12.0,33,0.00,,CLR,0.00,VWS V14.00,2013-11-25 18:14:00,
2013-11-25 13:19:00,30.7,5.0,30.31,North,354,0.0,12.0,33,0.00,,CLR,0.00,VWS V14.00,2013-11-25 18:19:00,
2013-11-25 13:24:00,30.8,5.1,30.31,WSW,242,0.0,12.0,33,0.00,,CLR,0.00,VWS V14.00,2013-11-25 18:24:00,
2013-11-25 13:29:00,31.1,6.0,30.31,WSW,251,0.0,12.0,34,0.00,,CLR,0.00,VWS V14.00,2013-11-25 18:29:00,
2013-11-25 13:34:00,31.1,5.4,30.31,NW,313,1.0,7.0,33,0.00,,CLR,0.00,VWS V14.00,2013-11-25 18:34:00,
2013-11-25 13:39:00,31.0,5.9,30.31,WNW,283,0.0,7.0,34,0.00,,CLR,0.00,VWS V14.00,2013-11-25 18:39:00,
2013-11-25 13:44:00,31.1,6.7,30.31,NW,309,0.0,7.0,35,0.00,,CLR,0.00,VWS V14.00,2013-11-25 18:44:00,
2013-11-25 13:49:00,31.4,6.3,30.31,North,349,0.0,7.0,34,0.00,,CLR,0.00,VWS V14.00,2013-11-25 18:49:00,
2013-11-25 13:54:00,31.0,6.6,30.31,SW,221,1.0,11.0,35,0.00,,CLR,0.00,VWS V14.00,2013-11-25 18:54:00,
2013-11-25 13:59:00,31.0,5.9,30.31,NNW,339,0.0,11.0,34,0.00,,CLR,0.00,VWS V14.00,2013-11-25 18:59:00,
2013-11-25 14:04:00,31.1,6.7,30.31,NW,325,0.0,6.0,35,0.00,,SCT250,0.00,VWS V14.00,2013-11-25 19:04:00,
2013-11-25 14:09:00,31.3,7.5,30.31,NNW,329,0.0,6.0,36,0.00,,SCT250,0.00,VWS V14.00,2013-11-25 19:09:00,
2013-11-25 14:14:00,31.6,7.7,30.30,North,350,0.0,6.0,36,0.00,,SCT250,0.00,VWS V14.00,2013-11-25 19:14:00,
2013-11-25 14:19:00,31.4,8.1,30.31,North,355,0.0,6.0,37,0.00,,SCT250,0.00,VWS V14.00,2013-11-25 19:19:00,
2013-11-25 14:24:00,31.1,7.9,30.31,NW,310,0.0,6.0,37,0.00,,SCT250,0.00,VWS V14.00,2013-11-25 19:24:00,
2013-11-25 14:29:00,31.1,7.9,30.31,WNW,301,0.0,6.0,37,0.00,,SCT250,0.00,VWS V14.00,2013-11-25 19:29:00,
2013-11-25 14:34:00,31.0,9.0,30.31,WSW,251,4.0,4.0,39,0.00,,SCT250,0.00,VWS V14.00,2013-11-25 19:34:00,
2013-11-25 14:39:00,30.6,8.0,30.31,West,261,0.0,5.0,38,0.00,,SCT250,0.00,VWS V14.00,2013-11-25 19:39:00,
2013-11-25 14:44:00,30.2,8.2,30.31,WSW,256,0.0,5.0,39,0.00,,SCT250,0.00,VWS V14.00,2013-11-25 19:44:00,
2013-11-25 14:49:00,30.2,8.8,30.31,West,269,0.0,5.0,40,0.00,,SCT250,0.00,VWS V14.00,2013-11-25 19:49:00,
2013-11-25 14:54:00,30.1,8.7,30.31,West,265,0.0,5.0,40,0.00,,SCT250,0.00,VWS V14.00,2013-11-25 19:54:00,
2013-11-25 14:59:00,30.0,8.6,30.32,South,189,0.0,5.0,40,0.00,,SCT250,0.00,VWS V14.00,2013-11-25 19:59:00,
2013-11-25 15:04:00,29.8,9.0,30.31,SSW,200,0.0,0.0,41,0.00,,SCT250,0.00,VWS V14.00,2013-11-25 20:04:00,
2013-11-25 15:09:00,29.8,9.0,30.32,WNW,284,0.0,0.0,41,0.00,,SCT250,0.00,VWS V14.00,2013-11-25 20:09:00,
2013-11-25 15:14:00,29.8,9.0,30.31,NNW,328,0.0,0.0,41,0.00,,SCT250,0.00,VWS V14.00,2013-11-25 20:14:00,
2013-11-25 15:19:00,29.6,9.3,30.31,North,349,0.0,0.0,42,0.00,,SCT250,0.00,VWS V14.00,2013-11-25 20:19:00,
2013-11-25 15:24:00,29.6,9.3,30.32,North,349,0.0,0.0,42,0.00,,SCT250,0.00,VWS V14.00,2013-11-25 20:24:00,
2013-11-25 15:29:00,29.5,9.8,30.31,North,349,0.0,0.0,43,0.00,,SCT250,0.00,VWS V14.00,2013-11-25 20:29:00,
2013-11-25 15:34:00,29.5,9.8,30.32,SW,236,0.0,0.0,43,0.00,,SCT250,0.00,VWS V14.00,2013-11-25 20:34:00,
2013-11-25 15:39:00,29.4,9.7,30.32,WSW,237,0.0,0.0,43,0.00,,SCT250,0.00,VWS V14.00,2013-11-25 20:39:00,
2013-11-25 15:44:00,29.3,10.1,30.32,WSW,238,0.0,0.0,44,0.00,,SCT250,0.00,VWS V14.00,2013-11-25 20:44:00,
2013-11-25 15:49:00,29.2,10.0,30.32,WSW,238,0.0,0.0,44,0.00,,SCT250,0.00,VWS V14.00,2013-11-25 20:49:00,
2013-11-25 15:54:00,28.9,9.7,30.32,WSW,238,0.0,0.0,44,0.00,,SCT250,0.00,VWS V14.00,2013-11-25 20:54:00,
2013-11-25 15:59:00,28.7,10.6,30.32,WSW,238,0.0,0.0,46,0.00,,SCT250,0.00,VWS V14.00,2013-11-25 20:59:00,
2013-11-25 16:04:00,28.6,10.5,30.32,WSW,238,0.0,0.0,46,0.00,,SCT250,0.00,VWS V14.00,2013-11-25 21:04:00,
2013-11-25 16:09:00,28.5,10.4,30.33,WSW,238,0.0,0.0,46,0.00,,SCT250,0.00,VWS V14.00,2013-11-25 21:09:00,
2013-11-25 16:14:00,28.2,10.1,30.32,WSW,238,0.0,0.0,46,0.00,,SCT250,0.00,VWS V14.00,2013-11-25 21:14:00,
2013-11-25 16:19:00,28.0,9.9,30.32,WSW,238,0.0,0.0,46,0.00,,SCT250,0.00,VWS V14.00,2013-11-25 21:19:00,
2013-11-25 16:24:00,27.7,9.6,30.32,WSW,238,0.0,0.0,46,0.00,,SCT250,0.00,VWS V14.00,2013-11-25 21:24:00,
2013-11-25 16:29:00,27.6,9.5,30.32,WSW,238,0.0,0.0,46,0.00,,SCT250,0.00,VWS V14.00,2013-11-25 21:29:00,
2013-11-25 16:34:00,27.4,9.4,30.33,WSW,238,0.0,0.0,46,0.00,,SCT250,0.00,VWS V14.00,2013-11-25 21:34:00,
2013-11-25 16:39:00,27.3,9.3,30.32,WSW,238,0.0,0.0,46,0.00,,SCT250,0.00,VWS V14.00,2013-11-25 21:39:00,
2013-11-25 16:44:00,27.3,9.3,30.32,WSW,238,0.0,0.0,46,0.00,,SCT250,0.00,VWS V14.00,2013-11-25 21:44:00,
2013-11-25 16:49:00,27.3,9.7,30.32,WSW,238,0.0,0.0,47,0.00,,SCT250,0.00,VWS V14.00,2013-11-25 21:49:00,
2013-11-25 16:54:00,27.1,9.6,30.33,WSW,238,0.0,0.0,47,0.00,,SCT250,0.00,VWS V14.00,2013-11-25 21:54:00,
2013-11-25 16:59:00,27.0,9.5,30.33,WSW,238,0.0,0.0,47,0.00,,SCT250,0.00,VWS V14.00,2013-11-25 21:59:00,
2013-11-25 17:04:00,26.8,9.3,30.33,WSW,238,0.0,0.0,47,0.00,,SCT250,0.00,VWS V14.00,2013-11-25 22:04:00,
2013-11-25 17:09:00,26.8,9.3,30.33,WSW,238,0.0,0.0,47,0.00,,SCT250,0.00,VWS V14.00,2013-11-25 22:09:00,
2013-11-25 17:14:00,26.7,9.2,30.33,WSW,238,0.0,0.0,47,0.00,,SCT250,0.00,VWS V14.00,2013-11-25 22:14:00,
2013-11-25 17:19:00,26.5,9.5,30.33,WSW,238,0.0,0.0,48,0.00,,SCT250,0.00,VWS V14.00,2013-11-25 22:19:00,
2013-11-25 17:24:00,26.5,9.5,30.33,WSW,238,0.0,0.0,48,0.00,,SCT250,0.00,VWS V14.00,2013-11-25 22:24:00,
2013-11-25 17:29:00,26.4,9.8,30.33,WSW,238,0.0,0.0,49,0.00,,SCT250,0.00,VWS V14.00,2013-11-25 22:29:00,
2013-11-25 17:34:00,26.5,9.5,30.33,WSW,238,0.0,0.0,48,0.00,,SCT250,0.00,VWS V14.00,2013-11-25 22:34:00,
2013-11-25 17:36:00,26.5,9.5,30.33,WSW,238,0.0,0.0,48,0.00,,SCT250,0.00,VWS V14.00,2013-11-25 22:36:00,
2013-11-25 17:39:00,26.5,9.5,30.33,WSW,238,0.0,0.0,48,0.00,,SCT250,0.00,VWS V14.00,2013-11-25 22:39:00,
2013-11-25 17:44:00,26.5,9.5,30.33,WSW,238,0.0,0.0,48,0.00,,SCT250,0.00,VWS V14.00,2013-11-25 22:44:00,
2013-11-25 17:49:00,26.2,9.7,30.33,WSW,238,0.0,0.0,49,0.00,,SCT250,0.00,VWS V14.00,2013-11-25 22:49:00,
2013-11-25 17:54:00,26.2,10.1,30.32,WSW,238,0.0,0.0,50,0.00,,SCT250,0.00,VWS V14.00,2013-11-25 22:54:00,
2013-11-25 17:59:00,26.2,10.1,30.32,WSW,238,0.0,0.0,50,0.00,,SCT250,0.00,VWS V14.00,2013-11-25 22:59:00,
2013-11-25 18:04:00,26.2,10.6,30.33,WSW,238,0.0,0.0,51,0.00,,SCT250,0.00,VWS V14.00,2013-11-25 23:04:00,
2013-11-25 18:09:00,26.2,10.6,30.33,WSW,238,0.0,0.0,51,0.00,,SCT250,0.00,VWS V14.00,2013-11-25 23:09:00,
2013-11-25 18:14:00,26.1,10.5,30.32,WSW,238,0.0,0.0,51,0.00,,CLR,0.00,VWS V14.00,2013-11-25 23:14:00,
2013-11-25 18:19:00,26.2,10.6,30.32,SW,221,0.0,0.0,51,0.00,,CLR,0.00,VWS V14.00,2013-11-25 23:19:00,
2013-11-25 18:24:00,26.2,10.6,30.32,SW,220,0.0,0.0,51,0.00,,CLR,0.00,VWS V14.00,2013-11-25 23:24:00,
2013-11-25 18:29:00,26.2,10.6,30.32,SW,232,0.0,0.0,51,0.00,,CLR,0.00,VWS V14.00,2013-11-25 23:29:00,
2013-11-25 18:34:00,26.4,10.7,30.32,SW,232,0.0,0.0,51,0.00,,CLR,0.00,VWS V14.00,2013-11-25 23:34:00,
2013-11-25 18:39:00,26.4,11.2,30.33,SW,232,0.0,0.0,52,0.00,,CLR,0.00,VWS V14.00,2013-11-25 23:39:00,
2013-11-25 18:44:00,26.2,11.0,30.33,SW,231,0.0,0.0,52,0.00,,CLR,0.00,VWS V14.00,2013-11-25 23:44:00,
2013-11-25 18:49:00,26.2,11.4,30.33,South,190,0.0,0.0,53,0.00,,CLR,0.00,VWS V14.00,2013-11-25 23:49:00,
2013-11-25 18:54:00,26.2,11.0,30.33,South,190,0.0,0.0,52,0.00,,CLR,0.00,VWS V14.00,2013-11-25 23:54:00,
2013-11-25 18:59:00,26.3,11.5,30.32,SSW,207,0.0,0.0,53,0.00,,CLR,0.00,VWS V14.00,2013-11-25 23:59:00,
2013-11-25 19:04:00,26.3,11.1,30.32,SSW,205,0.0,0.0,52,0.00,,CLR,0.00,VWS V14.00,2013-11-26 00:04:00,
2013-11-25 19:09:00,26.1,11.3,30.31,South,186,0.0,0.0,53,0.00,,CLR,0.00,VWS V14.00,2013-11-26 00:09:00,
2013-11-25 19:14:00,26.1,11.3,30.31,South,190,0.0,0.0,53,0.00,,CLR,0.00,VWS V14.00,2013-11-26 00:14:00,
2013-11-25 19:19:00,26.1,11.3,30.32,South,182,0.0,0.0,53,0.00,,CLR,0.00,VWS V14.00,2013-11-26 00:19:00,
2013-11-25 19:24:00,26.1,11.3,30.32,South,182,0.0,0.0,53,0.00,,CLR,0.00,VWS V14.00,2013-11-26 00:24:00,
2013-11-25 19:29:00,25.9,11.1,30.33,South,182,0.0,0.0,53,0.00,,CLR,0.00,VWS V14.00,2013-11-26 00:29:00,
2013-11-25 19:34:00,25.8,11.0,30.31,SSW,209,0.0,0.0,53,0.00,,CLR,0.00,VWS V14.00,2013-11-26 00:34:00,
2013-11-25 19:39:00,25.8,11.5,30.32,SSW,208,0.0,0.0,54,0.00,,CLR,0.00,VWS V14.00,2013-11-26 00:39:00,
2013-11-25 19:44:00,25.8,11.5,30.31,SSW,194,0.0,0.0,54,0.00,,CLR,0.00,VWS V14.00,2013-11-26 00:44:00,
2013-11-25 19:49:00,25.9,11.6,30.31,SSW,201,0.0,0.0,54,0.00,,CLR,0.00,VWS V14.00,2013-11-26 00:49:00,
2013-11-25 19:54:00,25.9,11.6,30.30,SSW,198,0.0,0.0,54,0.00,,CLR,0.00,VWS V14.00,2013-11-26 00:54:00,
2013-11-25 19:59:00,26.1,11.7,30.30,WSW,245,0.0,0.0,54,0.00,,CLR,0.00,VWS V14.00,2013-11-26 00:59:00,
2013-11-25 20:04:00,26.1,11.7,30.30,WSW,245,0.0,0.0,54,0.00,,CLR,0.00,VWS V14.00,2013-11-26 01:04:00,
2013-11-25 20:09:00,26.4,12.0,30.31,SW,235,0.0,0.0,54,0.00,,CLR,0.00,VWS V14.00,2013-11-26 01:09:00,
2013-11-25 20:14:00,26.4,11.6,30.31,WSW,238,0.0,0.0,53,0.00,,CLR,0.00,VWS V14.00,2013-11-26 01:14:00,
2013-11-25 20:19:00,26.5,11.7,30.32,SW,230,0.0,0.0,53,0.00,,CLR,0.00,VWS V14.00,2013-11-26 01:19:00,
2013-11-25 20:24:00,26.5,12.1,30.31,WSW,254,0.0,0.0,54,0.00,,CLR,0.00,VWS V14.00,2013-11-26 01:24:00,
2013-11-25 20:29:00,26.7,12.3,30.31,SW,229,0.0,0.0,54,0.00,,CLR,0.00,VWS V14.00,2013-11-26 01:29:00,
2013-11-25 20:34:00,26.7,11.9,30.31,SW,229,0.0,0.0,53,0.00,,CLR,0.00,VWS V14.00,2013-11-26 01:34:00,
2013-11-25 20:39:00,26.5,12.1,30.31,SW,221,0.0,0.0,54,0.00,,CLR,0.00,VWS V14.00,2013-11-26 01:39:00,
2013-11-25 20:44:00,26.5,12.1,30.31,WSW,244,0.0,0.0,54,0.00,,CLR,0.00,VWS V14.00,2013-11-26 01:44:00,
2013-11-25 20:49:00,26.5,12.1,30.31,SW,232,0.0,0.0,54,0.00,,CLR,0.00,VWS V14.00,2013-11-26 01:49:00,
2013-11-25 20:54:00,26.5,12.1,30.30,SW,214,0.0,0.0,54,0.00,,CLR,0.00,VWS V14.00,2013-11-26 01:54:00,
2013-11-25 20:59:00,26.5,12.1,30.29,SSW,208,0.0,0.0,54,0.00,,CLR,0.00,VWS V14.00,2013-11-26 01:59:00,
2013-11-25 21:04:00,26.5,12.1,30.29,SSW,209,0.0,0.0,54,0.00,,SCT250,0.00,VWS V14.00,2013-11-26 02:04:00,
2013-11-25 21:09:00,26.7,12.3,30.28,SSW,210,0.0,0.0,54,0.00,,SCT250,0.00,VWS V14.00,2013-11-26 02:09:00,
2013-11-25 21:14:00,26.7,12.3,30.29,SSW,207,0.0,0.0,54,0.00,,SCT250,0.00,VWS V14.00,2013-11-26 02:14:00,
2013-11-25 21:19:00,26.7,12.3,30.29,South,181,0.0,0.0,54,0.00,,SCT250,0.00,VWS V14.00,2013-11-26 02:19:00,
2013-11-25 21:24:00,26.7,12.7,30.29,South,181,0.0,0.0,55,0.00,,SCT250,0.00,VWS V14.00,2013-11-26 02:24:00,
2013-11-25 21:29:00,26.7,12.7,30.28,South,186,0.0,0.0,55,0.00,,SCT250,0.00,VWS V14.00,2013-11-26 02:29:00,
2013-11-25 21:34:00,26.7,12.7,30.29,South,173,0.0,0.0,55,0.00,,SCT250,0.00,VWS V14.00,2013-11-26 02:34:00,
2013-11-25 21:39:00,26.8,12.8,30.28,South,177,0.0,0.0,55,0.00,,SCT250,0.00,VWS V14.00,2013-11-26 02:39:00,
2013-11-25 21:44:00,26.8,12.8,30.28,South,187,0.0,0.0,55,0.00,,SCT250,0.00,VWS V14.00,2013-11-26 02:44:00,
2013-11-25 21:49:00,26.8,12.8,30.28,South,186,0.0,0.0,55,0.00,,SCT250,0.00,VWS V14.00,2013-11-26 02:49:00,
2013-11-25 21:54:00,27.0,13.0,30.28,South,187,0.0,0.0,55,0.00,,SCT250,0.00,VWS V14.00,2013-11-26 02:54:00,
2013-11-25 21:59:00,27.0,13.4,30.28,SSE,161,0.0,0.0,56,0.00,,SCT250,0.00,VWS V14.00,2013-11-26 02:59:00,
2013-11-25 22:04:00,27.0,13.4,30.27,South,170,0.0,0.0,56,0.00,,SCT250,0.00,VWS V14.00,2013-11-26 03:04:00,
2013-11-25 22:09:00,27.1,13.5,30.28,South,184,0.0,0.0,56,0.00,,SCT250,0.00,VWS V14.00,2013-11-26 03:09:00,
2013-11-25 22:14:00,27.3,14.1,30.27,SW,217,0.0,0.0,57,0.00,,SCT250,0.00,VWS V14.00,2013-11-26 03:14:00,
2013-11-25 22:19:00,27.3,14.1,30.27,SW,214,0.0,0.0,57,0.00,,SCT250,0.00,VWS V14.00,2013-11-26 03:19:00,
2013-11-25 22:24:00,27.4,14.6,30.27,SW,231,0.0,0.0,58,0.00,,SCT250,0.00,VWS V14.00,2013-11-26 03:24:00,
2013-11-25 22:29:00,27.6,15.2,30.26,SW,236,0.0,0.0,59,0.00,,SCT250,0.00,VWS V14.00,2013-11-26 03:29:00,
2013-11-25 22:34:00,27.7,15.3,30.27,SW,225,0.0,0.0,59,0.00,,SCT250,0.00,VWS V14.00,2013-11-26 03:34:00,
2013-11-25 22:39:00,27.9,15.8,30.27,SW,225,0.0,0.0,60,0.00,,SCT250,0.00,VWS V14.00,2013-11-26 03:39:00,
2013-11-25 22:44:00,27.9,15.8,30.27,West,276,0.0,0.0,60,0.00,,SCT250,0.00,VWS V14.00,2013-11-26 03:44:00,
2013-11-25 22:49:00,27.9,15.8,30.27,WSW,240,0.0,0.0,60,0.00,,SCT250,0.00,VWS V14.00,2013-11-26 03:49:00,
2013-11-25 22:54:00,28.0,15.9,30.27,WSW,244,0.0,0.0,60,0.00,,SCT250,0.00,VWS V14.00,2013-11-26 03:54:00,
2013-11-25 22:59:00,28.0,15.9,30.27,SW,218,0.0,0.0,60,0.00,,SCT250,0.00,VWS V14.00,2013-11-26 03:59:00,
2013-11-25 23:04:00,28.2,16.5,30.27,SW,227,0.0,0.0,61,0.00,,CLR,0.00,VWS V14.00,2013-11-26 04:04:00,
2013-11-25 23:09:00,28.3,17.0,30.27,SW,228,0.0,0.0,62,0.00,,CLR,0.00,VWS V14.00,2013-11-26 04:09:00,
2013-11-25 23:14:00,28.5,17.1,30.27,WSW,242,0.0,0.0,62,0.00,,CLR,0.00,VWS V14.00,2013-11-26 04:14:00,
2013-11-25 23:19:00,28.6,17.2,30.27,West,268,0.0,0.0,62,0.00,,CLR,0.00,VWS V14.00,2013-11-26 04:19:00,
2013-11-25 23:24:00,28.8,17.4,30.26,West,268,0.0,0.0,62,0.00,,CLR,0.00,VWS V14.00,2013-11-26 04:24:00,
2013-11-25 23:29:00,28.8,17.8,30.26,SW,230,0.0,0.0,63,0.00,,CLR,0.00,VWS V14.00,2013-11-26 04:29:00,
2013-11-25 23:34:00,28.9,17.5,30.27,WNW,287,0.0,0.0,62,0.00,,CLR,0.00,VWS V14.00,2013-11-26 04:34:00,
2013-11-25 23:39:00,28.9,17.9,30.26,South,190,0.0,0.0,63,0.00,,CLR,0.00,VWS V14.00,2013-11-26 04:39:00,
2013-11-25 23:44:00,29.0,18.0,30.26,SW,215,0.0,0.0,63,0.00,,CLR,0.00,VWS V14.00,2013-11-26 04:44:00,
2013-11-25 23:49:00,29.0,18.0,30.27,NW,310,0.0,0.0,63,0.00,,CLR,0.00,VWS V14.00,2013-11-26 04:49:00,
2013-11-25 23:54:00,29.2,18.2,30.26,NW,305,0.0,0.0,63,0.00,,CLR,0.00,VWS V14.00,2013-11-26 04:54:00,
2013-11-25 23:59:00,29.2,18.2,30.26,WSW,251,0.0,0.0,63,0.00,,CLR,0.00,VWS V14.00,2013-11-26 04:59:00,